Location: Flotzheim
(48.8375°N, 10.8136°E)
Time: 04:03:13
(UTC+00:00)

ERS-2 - Pass Details

Date: 23 January 2021
Orbit: 492 x 497 km, 98.6° (Epoch: 26 February)

Event Time Altitude Azimuth Distance (km) Brightness Sun altitude
Exits shadow 18:11:40 26° 359° (N) 1,018 3.6 -21.4°
Maximum altitude 18:13:33 59° 288° (WNW) 578 2.6 -21.7°
Drops below altitude 10° 18:17:06 10° 209° (SSW) 1,684 5.2 -22.2°
Sets 18:19:11 0° 206° (SSW) 2,560 6.1 -22.6°
